Regional Weather Roundup
Issued by NWS

Home | Current Version | Previous Version | Graphics & Text | Print | Product List | Glossary On
Versions: 1 2 3 4 5 6 7 8 9 10 11 12 13 14 15 16 17 18 19 20 21 22 23 24 25 26 27 28 29 30 31 32 33 34 35 36 37 38 39 40 41 42 43 44 45 46 47 48 49 50
000
ASUS43 KTOP 042108
RWRKS

WEATHER ROUNDUP FOR KANSAS
NATIONAL WEATHER SERVICE GOODLAND KS
400 PM CDT TUE AUG 04 2015

NOTE:  "FAIR" INDICATES FEW OR NO CLOUDS BELOW 12,000 FEET WITH NO
SIGNIFICANT WEATHER AND/OR OBSTRUCTIONS TO VISIBILITY.

KSZ001>006-013>018-027>032-041>047-042200-
NORTHWEST KANSAS

CITY           SKY/WX    TMP DP  RH WIND       PRES   REMARKS
GOODLAND       MOSUNNY   87  57  35 NE17G24   29.96S
HAYS           MOSUNNY   88  63  42 SE24G30   29.90F
HILL CITY      CLOUDY    80  67  64 E17       29.92R
RUSSELL        MOSUNNY   86  66  51 S21G26    29.90F
$$

KSZ061>065-074>080-084>089-042200-
SOUTHWEST KANSAS

CITY           SKY/WX    TMP DP  RH WIND       PRES   REMARKS
DODGE CITY     MOSUNNY   87  64  46 SE14G22   29.93S
ELKHART          N/A     90  66  45 S12         N/A
GARDEN CITY    MOSUNNY   88  64  44 S13G22    29.91S
GREAT BEND     CLOUDY    84  66  54 SE18      29.92S
LIBERAL        SUNNY     90  64  43 S17       29.91F
PRATT          MOSUNNY   82  64  54 S12       29.94S
$$

KSZ066>073-081>083-090>101-042200-
SOUTHEAST KANSAS

CITY           SKY/WX    TMP DP  RH WIND       PRES   REMARKS
CHANUTE        CLOUDY    77  68  73 S13       29.99F
COFFEYVILLE    LGT RAIN  75  73  93 E8        29.97F
HUTCHINSON     PTSUNNY   83  69  62 SE16G22   29.93F
MEDICINE LODGE   N/A     83  70  64 SE8       29.90F
NEWTON         PTSUNNY   81  66  61 S15G22    29.97F
PARSONS        LGT RAIN  74  72  93 S6        29.99F
WICHITA INTL   PTSUNNY   82  68  62 SE16G22   29.93F
WICHITA JABRA  MOSUNNY   82  68  62 SE16      29.94F
WICHITA MCCONL MOSUNNY   82  66  57 SE12      29.94F
$$

KSZ007>012-019>026-033>040-048>060-102>105-042200-
NORTHEAST KANSAS

CITY           SKY/WX    TMP DP  RH WIND       PRES   REMARKS
CONCORDIA      CLOUDY    76  72  87 SE7       29.93R
EMPORIA        CLOUDY    78  67  68 S12G22    29.95F
LAWRENCE       TSTM      78  75  90 E7        29.92F
MANHATTAN      LGT RAIN  77  72  84 SW9       29.93R
MARYSVILLE     PTSUNNY   82  72  69 SE10      29.93R
OLATHE IND     CLOUDY    84  73  69 E12       29.94F
OLATHE EXE     CLOUDY    82  72  71 SE10      29.94F
SALINA         PTSUNNY   85  70  60 S13       29.91F
TOPEKA BILLARD TSTM      72  69  90 S13G35    29.97R VSB 1/4
TOPEKA FORBES  TSTM      74  68  81 E12       29.92S
$$


USA.gov is the U.S. government's official web portal to all federal, state and local government web resources and services.